Location: ???? ?????
(30.0052°N, 31.2891°E)
Time: 21:55:01
(UTC+00:00)

BREEZE-M DEB (TANK) - Pass Details

Date: 26 May 2022
Orbit: 321 x 17098 km, 49.4° (Epoch: 04 July)

Event Time Altitude Azimuth Distance (km) Brightness Sun altitude
Exits shadow 01:13:46 40° 297° (WNW) 701 3.1 -19.5°
Maximum altitude 01:14:16 45° 328° (NNW) 701 3.3 -19.4°
Drops below altitude 10° 01:19:42 10° 42° (NE) 3,029 7.8 -18.5°
Sets 01:24:56 0° 48° (NE) 5,482 9.6 -17.7°
